Theta_e
314 314 315 315 315 316 316 319 322 320 319 326 333 333 334 339 342 345 345 344 342 343 343 341 341 340 339 339 338 338 336 334 326 330 328 324 326 326 329 331 331 331 328
312 312 312 312 313 313 313 314 316 320 320 320 323 328 332 333 337 341 343 343 343 343 343 342 342 341 340 337 336 337 338 336 333 326 331 324 324 325 328 330 330 329 324
311 311 311 311 311 312 312 312 313 317 320 320 320 320 326 331 333 335 337 340 341 341 341 340 339 334 333 334 334 335 334 335 335 329 327 324 328 328 328 328 327 324 323
311 312 312 311 312 312 312 313 313 314 319 319 321 319 320 323 329 331 332 334 336 337 337 338 336 334 334 333 333 334 334 334 333 330 326 325 328 327 327 325 323 323 321
309 309 310 310 310 311 311 312 313 313 315 321 321 320 318 319 322 324 328 330 331 333 334 335 335 336 335 333 333 332 333 333 332 329 325 325 324 326 325 325 324 323 322
309 308 307 308 309 309 310 310 312 313 313 315 320 319 318 315 319 323 324 325 328 329 330 331 333 334 333 332 332 332 332 333 332 329 327 324 324 325 326 325 324 322 319
307 307 308 308 308 309 309 309 309 310 311 312 313 315 317 318 318 318 320 320 320 322 325 328 329 330 330 331 331 332 332 332 331 331 330 328 326 326 324 325 325 324 320
307 307 308 308 308 309 309 309 310 309 309 309 311 312 315 316 317 318 319 318 318 319 323 325 326 327 328 328 329 328 329 330 331 331 330 330 330 331 330 327 324 323 321
308 308 308 308 309 309 309 310 310 310 310 310 310 310 311 314 315 315 315 316 318 317 317 323 321 319 321 321 323 324 325 326 328 327 329 330 330 331 330 329 324 321 322
308 309 308 309 309 309 310 310 311 311 311 311 311 311 310 310 311 312 312 314 315 316 316 319 320 314 313 317 320 321 323 324 325 328 326 329 330 330 329 328 329 325 323
307 307 308 309 309 310 310 310 310 311 311 311 311 311 311 311 310 309 309 311 315 316 317 319 319 314 312 312 313 316 317 318 319 322 326 328 328 330 329 329 328 328 325
308 308 308 308 310 310 309 310 310 311 310 310 311 311 311 310 311 311 310 311 311 315 316 318 316 312 312 313 314 313 315 316 316 318 323 326 327 328 329 329 329 328 326
308 308 309 310 309 309 309 310 309 310 310 310 310 310 310 310 310 311 311 311 312 314 315 314 313 312 313 314 314 314 313 314 315 318 321 321 325 328 328 328 328 328 326
308 309 309 308 309 308 308 307 307 308 309 309 308 309 310 309 310 310 312 312 311 311 312 312 312 312 313 313 313 313 314 315 316 317 320 322 324 326 328 328 326 326 326
308 308 307 307 307 307 307 307 308 309 308 308 308 309 309 308 310 310 310 311 310 310 309 309 309 310 310 311 311 310 311 311 313 315 317 319 322 324 326 327 326 325 324
307 306 306 306 305 305 305 306 306 306 306 307 307 308 308 309 310 309 308 310 310 308 308 309 309 309 311 311 310 310 308 309 309 311 314 318 320 322 323 324 324 324 322
304 303 303 302 302 302 303 303 302 302 304 304 305 306 308 309 309 309 307 308 309 309 306 307 308 310 310 310 310 308 307 308 308 307 309 313 318 320 321 321 322 321 321
301 300 300 300 300 300 300 300 301 303 303 304 304 305 308 308 307 307 308 307 306 306 307 307 310 311 311 311 310 308 306 307 308 307 308 309 312 317 319 318 319 320 319
300 300 300 300 300 300 299 300 300 302 302 304 305 306 307 306 306 305 306 303 305 306 307 309 310 310 310 310 310 309 308 309 309 309 309 309 310 311 316 318 318 320 319
300 301 301 301 301 301 301 301 302 303 303 304 304 304 302 303 304 306 306 305 305 306 307 308 309 309 309 308 308 308 308 309 309 308 309 309 309 310 311 314 316 316 316
300 300 302 302 302 301 301 303 303 304 305 305 304 303 304 305 304 305 305 306 307 307 307 307 307 307 306 306 306 306 307 307 307 307 307 308 308 309 309 310 312 313 312
300 301 301 300 303 302 302 303 302 302 302 301 302 302 303 303 304 303 304 304 304 304 304 305 305 304 303 303 303 304 304 305 305 305 305 307 307 308 308 308 309 310 309
299 299 299 299 300 300 300 300 300 300 300 301 301 301 301 302 302 302 303 302 302 301 301 302 302 301 301 302 302 302 302 302 302 302 303 305 306 307 307 307 307 307 307
298 298 298 298 298 299 299 299 299 299 299 299 299 300 300 301 301 300 299 299 299 298 299 299 300 300 300 301 301 301 301 301 301 301 302 303 305 305 306 307 307 307 307
298 298 298 298 298 298 298 298 298 297 298 298 298 298 298 297 297 296 296 296 297 297 298 299 299 299 300 301 302 302 302 302 301 301 301 302 303 304 304 305 306 305 305
298 298 298 298 298 297 297 297 297 296 296 297 296 296 296 296 295 294 294 295 297 296 297 298 299 300 302 303 302 303 303 302 302 302 302 302 302 302 303 304 304 304 304
Wind_Speed
21 20 20 21 22 22 23 22 19 19 21 21 19 19 17 15 12 14 18 20 20 19 17 20 19 16 13 11 13 17 22 24 10 16 17 17 17 16 17 22 22 22 20
17 17 20 21 22 22 23 24 22 20 18 19 19 19 18 14 15 13 13 14 15 16 14 14 14 13 15 15 14 16 21 23 22 17 23 20 19 18 18 20 22 21 20
16 17 19 21 22 22 22 23 24 23 15 16 17 18 18 16 15 14 14 14 16 16 15 14 14 12 12 15 16 18 22 23 21 20 22 18 17 17 18 20 22 21 19
16 17 15 15 16 17 17 17 20 23 17 15 14 15 16 16 14 14 14 15 15 13 15 16 16 17 16 15 17 17 18 19 16 18 18 16 15 15 20 24 22 22 20
13 13 13 13 14 15 16 16 15 17 21 12 14 15 14 14 14 14 13 13 12 14 16 18 18 18 18 17 16 16 16 16 15 14 12 10 10 9 22 22 24 23 21
12 15 17 16 16 14 13 15 16 16 16 17 14 15 17 17 16 13 13 14 12 12 14 16 14 14 15 15 14 13 16 19 18 14 15 15 20 17 22 27 25 15 6
11 12 14 14 15 15 15 15 16 17 17 17 17 16 16 17 17 17 14 15 15 14 13 13 15 15 12 15 17 15 14 13 16 18 19 22 22 21 21 25 28 22 17
9 12 11 14 14 16 16 16 17 16 16 18 17 18 17 16 15 16 17 17 16 15 14 14 14 16 15 12 11 11 18 21 23 23 24 27 29 27 25 26 28 32 26
15 15 15 16 17 17 18 18 18 18 18 18 18 18 19 20 18 18 20 21 20 20 17 14 15 16 15 14 15 16 20 22 24 21 25 29 30 30 30 26 24 18 12
14 15 16 17 18 19 19 21 20 20 19 17 18 18 19 20 21 20 20 19 20 22 22 19 17 16 18 17 16 15 17 24 25 23 17 25 27 28 28 30 29 22 15
18 19 19 18 21 19 19 20 22 20 18 18 19 18 19 18 19 22 21 20 19 20 23 21 18 17 18 20 17 20 25 26 28 27 26 20 22 25 24 31 33 31 24
20 20 22 21 18 19 19 20 20 19 20 21 19 20 22 22 22 20 20 21 21 21 23 18 17 17 18 20 21 23 22 21 25 26 21 20 18 26 27 27 27 32 32
19 23 21 18 17 16 15 15 18 18 18 20 20 22 25 26 23 21 18 19 20 19 17 16 16 15 15 16 17 19 21 22 22 19 19 18 20 27 31 27 29 28 32
19 18 16 16 15 13 14 15 17 17 17 18 21 22 25 28 25 21 18 17 17 15 14 13 12 12 12 14 15 17 20 22 21 20 20 21 22 22 27 27 24 26 23
12 11 11 12 15 17 16 16 17 16 18 20 22 21 22 20 24 19 17 21 20 17 14 15 16 15 14 15 14 18 20 20 19 21 22 20 18 21 24 26 27 21 17
10 12 12 14 18 20 21 24 22 21 21 21 22 22 23 23 21 18 16 16 24 21 21 24 22 18 11 13 15 19 16 19 18 18 18 20 19 18 20 22 24 20 16
14 17 19 20 23 24 24 24 23 30 25 24 23 20 21 21 21 21 20 18 19 21 20 18 18 17 13 14 15 15 16 16 19 19 18 18 19 21 24 19 18 13 15
21 25 26 25 23 22 21 20 20 19 19 22 25 23 21 20 21 22 21 20 20 21 22 19 17 15 15 17 16 13 15 15 15 17 18 19 21 20 19 18 19 17 15
23 22 21 21 20 21 21 17 19 19 19 22 24 22 20 22 22 20 16 19 18 16 20 22 16 11 12 12 15 14 16 15 15 17 16 16 19 20 20 21 18 18 19
22 23 24 23 20 18 18 17 16 17 17 16 13 14 20 20 17 17 15 18 19 18 10 13 9 9 9 9 11 11 14 13 12 15 16 15 15 16 17 19 18 19 20
21 21 23 25 20 17 16 14 16 16 10 8 11 12 14 11 13 14 10 11 12 5 5 4 2 3 6 8 10 11 12 12 12 14 15 13 11 11 11 13 13 17 16
15 16 17 18 15 12 11 8 6 8 10 11 11 14 18 18 18 16 13 9 10 6 6 3 5 5 5 8 9 10 11 12 12 13 13 12 11 7 4 4 8 13 17
12 13 15 17 16 15 15 14 13 12 14 13 13 15 16 15 15 15 14 14 13 10 10 10 8 7 8 10 11 12 12 13 13 13 13 10 8 8 3 3 7 9 10
13 14 15 16 18 18 18 17 17 17 17 17 17 16 14 16 18 20 18 14 12 11 11 11 11 11 10 10 10 10 8 10 11 10 9 8 6 5 2 4 8 12 13
17 17 18 18 18 19 19 19 20 21 20 21 20 20 20 19 19 16 13 12 12 12 12 12 12 12 12 12 12 9 8 9 8 8 4 1 2 3 5 9 12 15 15
22 21 19 18 16 15 16 18 17 18 17 18 20 21 19 18 17 16 14 13 13 13 14 12 11 12 12 13 15 14 13 14 9 7 7 7 6 7 10 12 14 15 15
Wind_Direction
49 40 35 26 23 19 13 4 352 352 352 348 349 355 353 342 318 282 268 257 255 261 259 248 245 248 247 256 264 256 253 246 240 261 265 260 246 249 243 233 228 218 216
29 19 15 12 11 12 11 7 360 340 338 341 341 346 357 350 338 310 284 277 268 245 230 228 234 240 259 265 264 269 264 254 245 246 259 249 244 244 243 226 213 210 214
25 21 7 2 0 359 358 1 0 354 327 326 338 343 349 352 348 329 316 289 276 269 254 243 244 249 254 262 264 261 265 264 261 250 259 251 241 239 224 212 207 210 216
8 8 4 358 355 357 360 355 355 358 340 320 326 339 343 346 349 348 336 309 302 285 274 258 255 261 259 259 269 269 274 267 269 250 252 238 230 232 218 200 204 213 215
354 352 349 350 347 353 1 6 355 350 359 335 321 326 337 341 346 339 341 339 320 304 290 275 269 268 260 262 263 272 267 265 262 253 236 219 213 196 203 209 217 220 219
356 342 330 329 330 336 344 352 358 358 347 353 342 335 337 339 344 342 337 334 332 330 321 302 274 262 256 264 271 272 265 268 271 255 240 230 234 224 217 216 213 204 215
343 350 347 343 340 340 340 341 340 337 341 343 340 342 338 335 336 337 340 332 325 323 321 321 318 297 281 282 278 276 273 271 269 266 262 253 253 247 236 225 223 215 213
324 321 325 326 323 332 335 337 337 326 320 322 325 329 330 321 332 327 329 327 327 322 318 309 303 300 298 300 292 296 290 279 269 275 272 272 273 270 261 254 246 231 228
316 309 314 316 313 317 320 324 325 325 318 315 313 313 315 315 314 316 320 317 315 312 308 300 298 296 293 293 292 299 294 283 275 276 278 284 281 271 264 255 239 203 212
314 315 313 309 310 309 312 314 314 316 308 309 308 307 303 301 300 306 312 308 300 301 303 291 293 304 303 301 299 301 287 282 296 289 282 286 285 276 254 239 242 214 212
311 310 308 308 305 300 307 308 311 313 315 312 309 306 305 304 306 298 301 298 292 283 287 289 292 296 298 296 291 282 277 285 287 287 283 275 284 279 263 243 238 231 216
305 310 308 305 300 300 303 305 307 309 315 314 314 312 312 314 311 306 299 290 282 274 270 271 279 289 295 298 302 299 299 290 283 283 276 272 265 268 265 254 248 240 232
305 305 304 305 303 304 303 304 308 305 312 311 310 311 309 312 312 305 298 290 273 265 261 263 271 290 304 305 317 316 308 302 290 270 265 265 270 266 267 259 254 251 247
302 302 299 296 297 300 301 299 304 303 306 306 307 299 301 305 304 301 288 273 262 256 249 251 266 286 307 317 318 317 311 303 298 284 275 274 279 267 252 250 240 235 235
294 300 304 308 308 306 305 306 304 297 302 303 301 298 294 292 299 303 288 272 257 253 264 265 272 292 307 323 321 315 313 306 297 289 287 277 263 252 249 239 233 223 214
307 312 315 317 314 311 308 307 301 300 301 298 298 293 296 287 295 291 285 272 260 261 274 278 283 286 299 314 318 309 307 304 301 297 293 281 272 259 249 229 222 218 219
327 320 316 313 310 307 305 303 302 304 300 296 295 297 294 289 289 283 275 283 275 270 264 269 275 279 289 298 298 305 298 300 310 301 291 289 277 261 253 242 242 237 236
319 314 313 312 312 307 301 293 288 285 296 298 298 295 294 296 296 292 277 272 267 265 257 254 256 273 284 286 290 295 293 309 317 313 306 298 294 280 254 239 220 210 220
321 317 317 311 304 302 299 287 289 291 287 291 303 301 304 304 305 296 271 254 253 258 261 247 252 266 275 289 290 293 295 301 306 310 310 304 296 288 266 248 229 221 211
322 322 315 303 293 285 287 285 287 300 295 299 316 319 318 314 301 296 269 248 251 256 278 266 256 249 260 280 297 309 300 316 337 331 318 316 300 284 270 253 226 200 196
327 328 330 316 300 290 287 297 306 302 304 340 337 341 337 330 315 286 267 265 248 289 263 225 243 298 299 307 315 314 311 310 322 328 334 331 314 292 281 259 218 203 188
352 346 353 353 343 315 313 331 4 41 33 24 25 40 42 44 52 44 56 44 47 19 352 21 30 1 334 334 332 324 320 320 320 317 321 333 343 334 288 220 185 173 159
5 12 18 27 40 45 44 47 43 44 43 38 41 35 33 37 43 42 46 55 51 41 29 30 19 359 355 350 342 330 319 309 307 303 300 311 328 334 12 143 137 138 140
38 41 36 35 43 45 41 38 42 44 43 41 44 46 51 59 65 67 56 46 38 32 31 32 28 18 7 358 344 338 342 343 333 318 299 292 297 292 240 126 134 133 141
48 47 45 41 44 43 43 43 46 49 51 51 46 45 62 68 63 55 44 36 33 36 37 27 20 13 12 7 9 7 358 348 344 1 347 302 210 206 170 156 144 137 133
66 60 56 49 50 53 53 46 52 42 45 60 54 51 47 46 42 37 38 40 39 40 38 32 21 22 28 36 40 40 31 20 29 48 61 63 85 119 137 132 131 128 131